This is the latest recevied weather packets stored in our database for station/object OK2ILA-3. If no packets are shown the sender has not sent any weather packets the latest 10 day(s).
| Time | Temp. | Humidity | Pressure | Rain* | Wind** | Luminosity | Snow |
|---|---|---|---|---|---|---|---|
| 1778004103 | 18.33° C | 61% | 4480 hPa | 0 mm | - | - | - |
| 1778003496 | 18.89° C | 100% | 4480 hPa | 0 mm | - | - | - |
| 1778002892 | 18.89° C | 98% | 4480 hPa | 0 mm | - | - | - |
| 1778002287 | 19.44° C | 98% | 4480 hPa | 0 mm | - | - | - |
| 1778001683 | 20° C | 59% | 4480 hPa | 0 mm | - | - | - |
| 1778001079 | 20° C | 79% | 4480 hPa | 0 mm | - | - | - |
| 1778000475 | 20° C | 2% | 4480 hPa | 0 mm | - | - | - |
| 1777999867 | 20° C | 2% | 147.2 hPa | 0 mm | - | - | - |
| 1777999258 | 20.56° C | 3% | 147.2 hPa | 0 mm | - | - | - |
| 1777998692 | 20.56° C | 2% | 1113.6 hPa | 0 mm | - | - | - |
| 1777998648 | 20.56° C | 2% | 1113.6 hPa | 0 mm | - | - | - |
| 1777998039 | 20.56° C | 14% | 3533 hPa | 0 mm | - | - | - |
| 1777997428 | 21.11° C | 100% | 1280 hPa | 0 mm | - | - | - |
| 1777996819 | 21.11° C | 51% | 0 hPa | 0 mm | - | - | - |
| 1777996211 | 21.11° C | 98% | 5196.8 hPa | 0 mm | - | - | - |
| 1777995607 | 21.67° C | 2% | 5196.8 hPa | 0 mm | - | - | - |
| 1777995001 | 21.67° C | 100% | 3123.4 hPa | 0 mm | - | - | - |
| 1777994393 | 21.67° C | 98% | 4096 hPa | 0 mm | - | - | - |
| 1777993788 | 22.22° C | 12% | 4096 hPa | 0 mm | - | - | - |
| 1777993186 | 22.78° C | 100% | 4096 hPa | 0 mm | - | - | - |
| 1777992579 | 22.78° C | 11% | 4096 hPa | 0 mm | - | - | - |
| 1777991974 | 22.22° C | 11% | 4096 hPa | 0 mm | - | - | - |
| 1777991369 | 22.78° C | 12% | 4096 hPa | 0 mm | - | - | - |
| 1777990764 | 22.78° C | 60% | 4096 hPa | 0 mm | - | - | - |
| 1777989553 | 22.78° C | 3% | 4096 hPa | 0 mm | - | - | - |
* Rain latest 24 hours (hover to see other rain measurements)
** Current wind speed in m/s (hover to see current wind gust speed)